Preview of NWS' New Version of Forecast
This preview is not operational and should not be used for support decisions.

Regional Weather Roundup (RWR)

Issued by National Weather Service (NWS)

                            
000
ASUS45 KCYS 210210
RWRWY 

WYOMING REGIONAL WEATHER ROUNDUP
NATIONAL WEATHER SERVICE CHEYENNE WY
800 PM MDT TUE AUG 20 2019

NOTE:  "FAIR" INDICATES FEW OR NO CLOUDS BELOW 12,000 FEET
WITH NO SIGNIFICANT WEATHER AND/OR OBSTRUCTIONS TO VISIBILITY.

WYZ001-210300-
YELLOWSTONE NATIONAL PARK
  
CITY           SKY/WX    TMP DP  RH WIND       PRES   REMARKS
LK YELLOWSTONE   N/A     65  46  50 CALM      30.34S                  
W YELLOWSTONE  NOT AVBL                                               

$$
WYZ002>013-054>058-071-098>099-210300-
NORTHERN WYOMING
  
CITY           SKY/WX    TMP DP  RH WIND       PRES   REMARKS
JACKSON        FAIR      77  41  27 N7        30.19R                  
CODY           FAIR      73  51  46 N8        30.16R                  
GREYBULL       FAIR      84  51  31 NW20      30.01R                  
WORLAND        FAIR      80  51  36 NE8       30.02R                  
SHERIDAN       FAIR      77  51  40 NE5       30.08S                  
BUFFALO        FAIR      76  51  41 SW5       30.17R                  
GILLETTE       FAIR      76  53  44 SE15G23   30.13S                  
HULETT         FAIR      70  55  60 E8        30.17                   
NEWCASTLE      FAIR      73  46  38 E9G25     30.15                   

$$
WYZ014>020-022>026-101>103-210300-
CENTRAL WYOMING
  
CITY           SKY/WX    TMP DP  RH WIND       PRES   REMARKS
BIG PINEY      FAIR      73  30  20 W7        30.23S                  
PINEDALE       FAIR      73  27  17 CALM      30.24                   
DUBOIS         FAIR      72  23  16 S3        30.25                   
LANDER         FAIR      81  36  19 W8        30.10R                  
RIVERTON       FAIR      84  29  13 N7        30.09S                  
CASPER         LGT RAIN  74  53  48 E26G39    30.12R                  
DOUGLAS        FAIR      72  57  59 SE10      30.17R                  

$$
WYZ021-027>030-104>119-210300-
SOUTHERN WYOMING
  
CITY           SKY/WX    TMP DP  RH WIND       PRES   REMARKS
EVANSTON       FAIR      75  19  12 W8        30.25S                  
KEMMERER       FAIR      73  18  12 W9        30.25                   
ROCK SPRINGS   FAIR      80  24  12 SW6       30.18S                  
DIXON          FAIR      75  28  17 W3        30.20S                  
RAWLINS        FAIR      79  23  12 W7        30.20S                  
SARATOGA       FAIR      79  27  14 SW7       30.23R                  
LARAMIE        FAIR      73  43  33 SE15G25   30.27R                  
CHEYENNE       FAIR      75  49  39 E13       30.20R                  
TORRINGTON     LGT RAIN  78  60  53 NE28G35   30.11R                  
PINE BLUFFS    LGT RAIN  75  63  64 E10       30.16R                  

$$
  

000
ASUS45 KCYS 210210
RWRWY 

WYOMING REGIONAL WEATHER ROUNDUP
NATIONAL WEATHER SERVICE CHEYENNE WY
800 PM MDT TUE AUG 20 2019

NOTE:  "FAIR" INDICATES FEW OR NO CLOUDS BELOW 12,000 FEET
WITH NO SIGNIFICANT WEATHER AND/OR OBSTRUCTIONS TO VISIBILITY.

WYZ001-210300-
...YELLOWSTONE NATIONAL PARK...
  
CITY           SKY/WX    TMP DP  RH WIND       PRES   REMARKS
LK YELLOWSTONE   N/A     65  46  50 CALM      30.34S                  
W YELLOWSTONE  NOT AVBL                                               

$$
WYZ002>013-054>058-071-098>099-210300-
...NORTHERN WYOMING...
  
CITY           SKY/WX    TMP DP  RH WIND       PRES   REMARKS
JACKSON        MOCLDY    77  41  27 N7        30.19R                  
CODY           MOCLDY    73  51  46 N8        30.16R                  
GREYBULL       PTCLDY    84  51  31 NW20      30.01R                  
WORLAND        PTCLDY    80  51  36 NE8       30.02R                  
SHERIDAN       PTCLDY    77  51  40 NE5       30.08S                  
BUFFALO        MOCLDY    76  51  41 SW5       30.17R                  
GILLETTE       CLOUDY    76  53  44 SE15G23   30.13S                  
HULETT         FAIR      70  55  60 E8        30.17S                  
NEWCASTLE      FAIR      73  46  38 E9G25     30.15F                  

$$
WYZ014>020-022>026-101>103-210300-
...CENTRAL WYOMING...
  
CITY           SKY/WX    TMP DP  RH WIND       PRES   REMARKS
BIG PINEY      PTCLDY    73  30  20 W7        30.23S                  
PINEDALE       PTCLDY    73  27  17 CALM      30.24S                  
DUBOIS         FAIR      72  23  16 S3        30.25R                  
LANDER         PTCLDY    81  36  19 W8        30.10R                  
RIVERTON       PTCLDY    84  29  13 N7        30.09S                  
CASPER         LGT RAIN  74  53  48 E26G39    30.12R                  
DOUGLAS        MOCLDY    72  57  59 SE10      30.17R                  

$$
WYZ021-027>030-104>119-210300-
...SOUTHERN WYOMING...
  
CITY           SKY/WX    TMP DP  RH WIND       PRES   REMARKS
EVANSTON       CLEAR     75  19  12 W8        30.25S                  
KEMMERER       PTCLDY    73  18  12 W9        30.25S                  
FORT BRIDGER   NOT AVBL                                               
ROCK SPRINGS   CLEAR     80  24  12 SW6       30.18S                  
DIXON          FAIR      75  28  17 W3        30.20S                  
RAWLINS        CLEAR     79  23  12 W7        30.20S                  
SARATOGA       FAIR      79  27  14 SW7       30.23R                  
LARAMIE        PTCLDY    73  43  33 SE15G25   30.27R                  
CHEYENNE       CLOUDY    75  49  39 E13       30.20R                  
TORRINGTON     LGT RAIN  78  60  53 NE28G35   30.11R                  
PINE BLUFFS    LGT RAIN  75  63  64 E10       30.16R                  

$$